Weather History for Columbus, GA

Change the Weather History Date:

Wednesday, April 3, 2013

  Actual Average Record
Temperature  
Mean Temperature 58 °F 62 °F  
Max Temperature 65 °F 74 °F 88 °F (1957)
Min Temperature 50 °F 49 °F 32 °F (1962)
Degree Days  
Heating Degree Days 7 5  
Month to date heating degree days 7 15  
Since 1 July heating degree days 1713 2038  
Cooling Degree Days 0 2  
Month to date cooling degree days 2 4  
Year to date cooling degree days 35 31  
Growing Degree Days 8 (Base 50)    
Moisture  
Dew Point 37 °F    
Average Humidity 49    
Maximum Humidity 67    
Minimum Humidity 30    
Precipitation  
Precipitation T in 0.14 in 2.34 in (1979)
Month to date precipitation 0.13 0.43  
Year to date precipitation 19.16 14.18  
Sea Level Pressure  
Sea Level Pressure 30.09 in    
Wind  
Wind Speed 9 mph (East)    
Max Wind Speed 23 mph    
Max Gust Speed 29 mph    
Visibility 10 miles    
Events Rain    
T = Trace of Precipitation, MM = Missing Value Source: NWS Daily Summary

Daily Weather History Graph

Daily Weather History Graph

Search for Another Location

Airport:

Trip Planner

Search our weather history database for the weather conditions in past years. The results will help you decide how hot, cold, wet, or windy it might be!

Date:

Astronomy

Apr. 03, 2013 Rise Set
Actual Time 7:24 AM EDT 8:01 PM EDT
Civil Twilight 7:00 AM EDT 8:26 PM EDT
Nautical Twilight 6:31 AM EDT 8:55 PM EDT
Astronomical Twilight 6:01 AM EDT 9:25 PM EDT
Moon 2:43 AM EDT (4/3) 1:33 PM EDT (4/3)
Length of Visible Light 13h 25m
Length of Day
12h 36m
Last Quarter, 45% of the Moon is Illuminated
Apr 3
Last Quarter
Apr 10
New
Apr 18
First Quarter
Apr 25
Full
May 2
Last Quarter

Hourly Weather History & Observations

Time (EDT) Temp. Dew Point Humidity Pressure Visibility Wind Dir Wind Speed Gust Speed Precip Events Conditions
12:51 AM 60.1 °F 39.0 °F 46% 30.09 in 10.0 mi NE 6.9 mph - N/A   Clear
1:51 AM 57.9 °F 34.0 °F 41% 30.10 in 10.0 mi NNE 4.6 mph - N/A   Clear
2:51 AM 55.9 °F 33.1 °F 42% 30.09 in 10.0 mi ENE 3.5 mph - N/A   Clear
3:51 AM 54.0 °F 32.0 °F 43% 30.06 in 10.0 mi NE 3.5 mph - N/A   Clear
4:51 AM 53.1 °F 33.1 °F 47% 30.07 in 10.0 mi NNE 3.5 mph - N/A   Clear
5:51 AM 53.1 °F 30.0 °F 41% 30.08 in 10.0 mi ENE 4.6 mph - N/A   Clear
6:51 AM 51.1 °F 33.1 °F 50% 30.09 in 10.0 mi Calm Calm - N/A   Clear
7:51 AM 52.0 °F 30.0 °F 43% 30.12 in 10.0 mi Calm Calm - N/A   Clear
8:51 AM 54.0 °F 28.0 °F 37% 30.12 in 10.0 mi ENE 5.8 mph - N/A   Clear
9:51 AM 57.0 °F 26.1 °F 30% 30.11 in 10.0 mi East 12.7 mph - N/A   Clear
10:51 AM 57.2 °F 28.4 °F 33% 30.14 in 10.0 mi East 10.4 mph - N/A   Mostly Cloudy
11:51 AM 61.0 °F 30.0 °F 31% 30.12 in 10.0 mi East 10.4 mph - N/A   Mostly Cloudy
12:51 PM 62.1 °F 32.0 °F 32% 30.10 in 10.0 mi ENE 9.2 mph - N/A   Mostly Cloudy
1:51 PM 64.0 °F 35.1 °F 34% 30.11 in 10.0 mi ESE 8.1 mph - N/A   Overcast
2:48 PM 64.4 °F 37.4 °F 37% 30.12 in 10.0 mi East 6.9 mph - N/A   Overcast
2:51 PM 64.0 °F 37.0 °F 37% 30.11 in 10.0 mi ESE 8.1 mph - N/A   Overcast
3:09 PM 64.4 °F 37.4 °F 37% 30.11 in 10.0 mi ENE 6.9 mph - N/A   Overcast
3:51 PM 64.0 °F 39.0 °F 40% 30.10 in 10.0 mi ESE 8.1 mph - N/A   Overcast
4:51 PM 64.9 °F 41.0 °F 42% 30.07 in 10.0 mi East 8.1 mph - N/A   Scattered Clouds
5:51 PM 61.0 °F 45.0 °F 56% 30.02 in 10.0 mi East 18.4 mph 25.3 mph N/A   Clear
6:40 PM 57.2 °F 44.6 °F 63% 30.06 in 10.0 mi ESE 15.0 mph - N/A   Overcast
6:51 PM 57.9 °F 45.0 °F 62% 30.06 in 10.0 mi East 13.8 mph - N/A   Overcast
7:19 PM 57.2 °F 46.4 °F 67% 30.06 in 10.0 mi East 18.4 mph 25.3 mph N/A   Overcast
7:51 PM 57.0 °F 46.0 °F 67% 30.07 in 10.0 mi East 13.8 mph 18.4 mph N/A   Overcast
8:51 PM 55.9 °F 45.0 °F 67% 30.05 in 10.0 mi East 13.8 mph 25.3 mph N/A   Overcast
9:51 PM 55.9 °F 45.0 °F 67% 30.08 in 10.0 mi East 15.0 mph 23.0 mph 0.00 in   Overcast
10:51 PM 55.4 °F 46.4 °F 72% 30.10 in 10.0 mi East 12.7 mph 20.7 mph N/A Rain Light Rain
11:51 PM 54.0 °F 46.9 °F 77% 30.09 in 10.0 mi East 11.5 mph - 0.00 in   Overcast